| time (UTC) | temp F | wind direction | speed knots | gust knots | rain 1hr in | rain 24hr in | rain mn in | humidity % | barometer mb |
| 20260510045210 | 75 | 124 | 3.5 | 7.8 | 0.00 | 0.00 | 0.00 | 67 | 1024.6 |
| 20260510044654 | 75 | 122 | 4.3 | 7.8 | 0.00 | 0.00 | 0.00 | 66 | 1024.6 |
| 20260510044155 | 75 | 129 | 4.3 | 9.6 | 0.00 | 0.00 | 0.00 | 65 | 1024.5 |
| 20260510043636 | 75 | 124 | 3.5 | 9.6 | 0.00 | 0.00 | 0.00 | 65 | 1024.5 |
| 20260510043119 | 75 | 123 | 4.3 | 8.7 | 0.00 | 0.00 | 0.00 | 64 | 1024.4 |
| 20260510042558 | 76 | 185 | 4.3 | 10.4 | 0.00 | 0.00 | 0.00 | 64 | 1024.4 |
| 20260510042055 | 76 | 120 | 4.3 | 10.4 | 0.00 | 0.00 | 0.00 | 63 | 1024.4 |
| 20260510041815 | 76 | 124 | 4.3 | 10.4 | 0.00 | 0.00 | 0.00 | 62 | 1024.4 |
| 20260510041100 | 76 | 146 | 4.3 | 10.4 | 0.00 | 0.00 | 0.00 | 61 | 1024.4 |
| 20260510040537 | 77 | 137 | 3.5 | 9.6 | 0.00 | 0.00 | 0.00 | 61 | 1024.4 |
| 20260510040038 | 77 | 112 | 3.5 | 8.7 | 0.00 | 0.00 | 0.00 | 60 | 1024.4 |
| 20260510035533 | 77 | 123 | 3.5 | 8.7 | 0.00 | 0.00 | 0.00 | 59 | 1024.3 |
| 20260510035024 | 77 | 133 | 5.2 | 10.4 | 0.00 | 0.00 | 0.00 | 58 | 1024.3 |
| 20260510034531 | 77 | 134 | 4.3 | 10.4 | 0.00 | 0.00 | 0.00 | 57 | 1024.3 |
| 20260510034007 | 78 | 107 | 4.3 | 8.7 | 0.00 | 0.00 | 0.00 | 58 | 1024.4 |
| 20260510033946 | 78 | 191 | 3.5 | 8.7 | 0.00 | 0.00 | 0.00 | 59 | 1024.3 |
| 20260510032958 | 78 | 101 | 3.5 | 9.6 | 0.00 | 0.00 | 0.00 | 59 | 1024.3 |
| 20260510032731 | 78 | 226 | 3.5 | 8.7 | 0.00 | 0.00 | 0.00 | 59 | 1024.2 |
| 20260510031939 | 78 | 135 | 3.5 | 10.4 | 0.00 | 0.00 | 0.00 | 59 | 1024.4 |
| 20260510031448 | 78 | 120 | 4.3 | 9.6 | 0.00 | 0.00 | 0.00 | 61 | 1024.3 |
| 20260510030945 | 78 | 212 | 4.3 | 9.6 | 0.00 | 0.00 | 0.00 | 60 | 1024.3 |
| 20260510030436 | 78 | 122 | 4.3 | 11.3 | 0.00 | 0.00 | 0.00 | 60 | 1024.3 |
| 20260510030148 | 78 | 191 | 4.3 | 11.3 | 0.00 | 0.00 | 0.00 | 61 | 1024.4 |
| 20260510025434 | 78 | 133 | 5.2 | 11.3 | 0.00 | 0.00 | 0.00 | 60 | 1024.4 |
| 20260510024912 | 78 | 126 | 5.2 | 11.3 | 0.00 | 0.00 | 0.00 | 60 | 1024.4 |
| 20260510024352 | 78 | 118 | 4.3 | 11.3 | 0.00 | 0.00 | 0.00 | 59 | 1024.5 |
| 20260510023847 | 78 | 193 | 4.3 | 10.4 | 0.00 | 0.00 | 0.00 | 60 | 1024.5 |
| 20260510023326 | 78 | 75 | 3.5 | 10.4 | 0.00 | 0.00 | 0.00 | 60 | 1024.5 |
| 20260510022850 | 78 | 124 | 3.5 | 10.4 | 0.00 | 0.00 | 0.00 | 60 | 1024.6 |
| 20260510022533 | 78 | 133 | 3.5 | 9.6 | 0.00 | 0.00 | 0.00 | 60 | 1024.7 |
| 20260510021741 | 78 | 102 | 3.5 | 9.6 | 0.00 | 0.00 | 0.00 | 63 | 1024.7 |
| 20260510021239 | 77 | 204 | 4.3 | 12.2 | 0.00 | 0.00 | 0.00 | 62 | 1024.7 |
| 20260510020752 | 77 | 106 | 4.3 | 12.2 | 0.00 | 0.00 | 0.00 | 62 | 1024.8 |
| 20260510020237 | 77 | 175 | 4.3 | 10.4 | 0.00 | 0.00 | 0.00 | 63 | 1024.9 |
| 20260510015744 | 77 | 110 | 4.3 | 11.3 | 0.00 | 0.00 | 0.00 | 62 | 1025.0 |
| 20260510015456 | 76 | 118 | 3.5 | 11.3 | 0.00 | 0.00 | 0.00 | 62 | 1025.2 |
| 20260510015227 | 76 | 142 | 3.5 | 8.7 | 0.00 | 0.00 | 0.00 | 63 | 1025.3 |
| 20260510014240 | 75 | 163 | 3.5 | 7.8 | 0.00 | 0.00 | 0.00 | 65 | 1025.4 |
| 20260510013750 | 75 | 141 | 3.5 | 8.7 | 0.00 | 0.00 | 0.00 | 66 | 1025.6 |
| 20260510013233 | 75 | 118 | 3.5 | 8.7 | 0.00 | 0.00 | 0.00 | 65 | 1025.7 |
| 20260510012741 | 75 | 109 | 2.6 | 7.0 | 0.00 | 0.00 | 0.00 | 66 | 1025.7 |
| 20260510012218 | 75 | 145 | 3.5 | 7.8 | 0.00 | 0.00 | 0.00 | 65 | 1025.7 |
| 20260510011730 | 75 | 133 | 2.6 | 7.8 | 0.00 | 0.00 | 0.00 | 65 | 1025.7 |
| 20260510011201 | 75 | 137 | 2.6 | 5.2 | 0.00 | 0.00 | 0.00 | 66 | 1025.8 |
| 20260510010923 | 75 | 132 | 3.5 | 8.7 | 0.00 | 0.00 | 0.00 | 65 | 1025.9 |
| 20260510010149 | 75 | 180 | 3.5 | 8.7 | 0.00 | 0.00 | 0.00 | 66 | 1026.0 |
| 20260510005652 | 75 | 192 | 2.6 | 7.8 | 0.00 | 0.00 | 0.00 | 66 | 1026.1 |
| 20260510005151 | 75 | 202 | 2.6 | 7.8 | 0.00 | 0.00 | 0.00 | 66 | 1026.1 |
| 20260510004857 | 75 | 163 | 3.5 | 7.8 | 0.00 | 0.00 | 0.00 | 66 | 1026.1 |
| 20260510004058 | 75 | 249 | 2.6 | 7.8 | 0.00 | 0.00 | 0.00 | 65 | 1026.1 |
| 20260510003556 | 75 | 207 | 2.6 | 6.1 | 0.00 | 0.00 | 0.00 | 66 | 1026.4 |
| 20260510003051 | 75 | 166 | 2.6 | 6.1 | 0.00 | 0.00 | 0.00 | 66 | 1026.4 |
| 20260510002555 | 75 | 215 | 2.6 | 6.1 | 0.00 | 0.00 | 0.00 | 66 | 1026.5 |
| 20260510002050 | 74 | 116 | 2.6 | 6.1 | 0.00 | 0.00 | 0.00 | 66 | 1026.4 |
| 20260510001558 | 74 | 180 | 3.5 | 7.8 | 0.00 | 0.00 | 0.00 | 67 | 1026.5 |
| 20260510001050 | 74 | 241 | 2.6 | 7.8 | 0.00 | 0.00 | 0.00 | 67 | 1026.5 |
| 20260510000550 | 74 | 226 | 1.7 | 5.2 | 0.00 | 0.00 | 0.00 | 68 | 1026.5 |
| 20260510000105 | 73 | 190 | 1.7 | 5.2 | 0.00 | 0.00 | 0.00 | 68 | 1026.5 |
| 20260509235546 | 73 | 205 | 1.7 | 4.3 | 0.00 | 0.00 | 0.00 | 69 | 1026.5 |
| 20260509235044 | 72 | 175 | 1.7 | 4.3 | 0.00 | 0.00 | 0.00 | 69 | 1026.4 |
| 20260509234808 | 72 | 250 | 1.7 | 4.3 | 0.00 | 0.00 | 0.00 | 70 | 1026.4 |
| 20260509234043 | 71 | 225 | 0.9 | 3.5 | 0.00 | 0.00 | 0.00 | 70 | 1026.4 |
| 20260509233553 | 71 | 226 | 1.7 | 3.5 | 0.00 | 0.00 | 0.00 | 72 | 1026.5 |
| 20260509233030 | 70 | 226 | 1.7 | 4.3 | 0.00 | 0.00 | 0.00 | 73 | 1026.5 |
| 20260509232526 | 69 | 246 | 1.7 | 4.3 | 0.00 | 0.00 | 0.00 | 73 | 1026.5 |
| 20260509232027 | 69 | 166 | 2.6 | 5.2 | 0.00 | 0.00 | 0.00 | 75 | 1026.4 |
| 20260509231513 | 67 | 195 | 1.7 | 5.2 | 0.00 | 0.00 | 0.00 | 75 | 1026.3 |
| 20260509231019 | 67 | 239 | 1.7 | 5.2 | 0.00 | 0.00 | 0.00 | 76 | 1026.2 |
| 20260509230748 | 66 | 219 | 2.6 | 5.2 | 0.00 | 0.00 | 0.00 | 76 | 1026.1 |
| 20260509230010 | 65 | 175 | 2.6 | 4.3 | 0.00 | 0.00 | 0.00 | 77 | 1026.2 |
| 20260509225515 | 65 | 195 | 1.7 | 4.3 | 0.00 | 0.00 | 0.00 | 78 | 1026.1 |
| 20260509225022 | 64 | 218 | 1.7 | 5.2 | 0.00 | 0.00 | 0.00 | 78 | 1026.2 |
| 20260509224501 | 64 | 219 | 1.7 | 5.2 | 0.00 | 0.00 | 0.00 | 80 | 1026.2 |
| 20260509224005 | 63 | 199 | 0.9 | 3.5 | 0.00 | 0.00 | 0.00 | 80 | 1026.0 |
| 20260509223451 | 62 | 206 | 0.9 | 4.3 | 0.00 | 0.00 | 0.00 | 81 | 1026.0 |
| 20260509222957 | 62 | 206 | 1.7 | 4.3 | 0.00 | 0.00 | 0.00 | 81 | 1026.0 |
| 20260509222451 | 61 | 229 | 1.7 | 4.3 | 0.00 | 0.00 | 0.00 | 81 | 1025.9 |
| 20260509221953 | 61 | 234 | 1.7 | 4.3 | 0.00 | 0.00 | 0.00 | 82 | 1025.8 |
| 20260509221451 | 60 | 221 | 1.7 | 4.3 | 0.00 | 0.00 | 0.00 | 83 | 1025.7 |
| 20260509220957 | 60 | 222 | 1.7 | 4.3 | 0.00 | 0.00 | 0.00 | 84 | 1025.7 |
| 20260509220456 | 59 | 251 | 1.7 | 4.3 | 0.00 | 0.00 | 0.00 | 84 | 1025.7 |
| 20260509215949 | 58 | 212 | 0.9 | 4.3 | 0.00 | 0.00 | 0.00 | 85 | 1025.7 |
| 20260509215711 | 58 | 185 | 1.7 | 4.3 | 0.00 | 0.00 | 0.00 | 85 | 1025.8 |
| 20260509214952 | 57 | 189 | 1.7 | 4.3 | 0.00 | 0.00 | 0.00 | 85 | 1025.7 |
| 20260509214450 | 57 | 224 | 1.7 | 4.3 | 0.00 | 0.00 | 0.00 | 85 | 1025.8 |
| 20260509213945 | 57 | 249 | 0.9 | 3.5 | 0.00 | 0.00 | 0.00 | 85 | 1025.8 |
| 20260509213501 | 56 | 217 | 0.9 | 3.5 | 0.00 | 0.00 | 0.00 | 85 | 1025.7 |
| 20260509212938 | 56 | 219 | 1.7 | 4.3 | 0.00 | 0.00 | 0.00 | 85 | 1025.6 |
| 20260509212433 | 56 | 248 | 1.7 | 4.3 | 0.00 | 0.00 | 0.00 | 85 | 1025.5 |
| 20260509211934 | 55 | 224 | 0.9 | 2.6 | 0.00 | 0.00 | 0.00 | 85 | 1025.4 |
| 20260509211433 | 55 | 224 | 0.9 | 3.5 | 0.00 | 0.00 | 0.00 | 85 | 1025.3 |
| 20260509211124 | 55 | 218 | 0.9 | 3.5 | 0.00 | 0.00 | 0.00 | 85 | 1025.2 |
| 20260509210408 | 55 | 244 | 0.9 | 3.5 | 0.00 | 0.00 | 0.00 | 85 | 1025.1 |
| 20260509205850 | 55 | 244 | 0.9 | 3.5 | 0.00 | 0.00 | 0.00 | 85 | 1024.9 |
| 20260509205343 | 55 | 246 | 0.9 | 3.5 | 0.00 | 0.00 | 0.00 | 85 | 1024.8 |
| 20260509204911 | 55 | 195 | 0.0 | 2.6 | 0.00 | 0.00 | 0.00 | 84 | 1024.8 |
| 20260509204601 | 55 | 195 | 0.0 | 2.6 | 0.00 | 0.00 | 0.00 | 84 | 1024.8 |
| 20260509203826 | 55 | 195 | 0.9 | 2.6 | 0.00 | 0.00 | 0.00 | 84 | 1024.7 |
| 20260509203307 | 55 | 195 | 0.9 | 2.6 | 0.00 | 0.00 | 0.00 | 84 | 1024.6 |
| 20260509202812 | 55 | 195 | 0.9 | 2.6 | 0.00 | 0.00 | 0.00 | 84 | 1024.6 |
| 20260509202307 | 55 | 195 | 0.9 | 1.7 | 0.00 | 0.00 | 0.00 | 84 | 1024.6 |
| 20260509202036 | 55 | 195 | 0.9 | 2.6 | 0.00 | 0.00 | 0.00 | 84 | 1024.5 |
| 20260509201305 | 55 | 195 | 0.9 | 4.3 | 0.00 | 0.00 | 0.00 | 84 | 1024.5 |
| 20260509201035 | 55 | 195 | 0.9 | 4.3 | 0.00 | 0.00 | 0.00 | 84 | 1024.4 |
| 20260509200316 | 55 | 195 | 1.7 | 4.3 | 0.00 | 0.00 | 0.00 | 84 | 1024.5 |
| 20260509195818 | 55 | 191 | 1.7 | 4.3 | 0.00 | 0.00 | 0.00 | 84 | 1024.5 |
| 20260509195246 | 55 | 185 | 1.7 | 3.5 | 0.00 | 0.00 | 0.00 | 84 | 1024.4 |
| 20260509195231 | 55 | 216 | 1.7 | 3.5 | 0.00 | 0.00 | 0.00 | 84 | 1024.3 |
| 20260509194223 | 55 | 198 | 0.9 | 3.5 | 0.00 | 0.00 | 0.00 | 84 | 1024.3 |
| 20260509193655 | 55 | 198 | 0.9 | 3.5 | 0.00 | 0.00 | 0.00 | 84 | 1024.3 |
| 20260509193214 | 55 | 198 | 0.9 | 3.5 | 0.00 | 0.00 | 0.00 | 84 | 1024.3 |
| 20260509192643 | 55 | 198 | 0.9 | 2.6 | 0.00 | 0.00 | 0.00 | 84 | 1024.2 |
| 20260509192137 | 55 | 198 | 0.9 | 2.6 | 0.00 | 0.00 | 0.00 | 84 | 1024.1 |
| 20260509191605 | 55 | 198 | 0.9 | 2.6 | 0.00 | 0.00 | 0.00 | 84 | 1024.1 |
| 20260509191111 | 55 | 199 | 0.9 | 3.5 | 0.00 | 0.00 | 0.00 | 84 | 1024.0 |
| 20260509190600 | 55 | 197 | 0.9 | 3.5 | 0.00 | 0.00 | 0.00 | 84 | 1024.0 |
| 20260509190323 | 55 | 166 | 1.7 | 3.5 | 0.00 | 0.00 | 0.00 | 84 | 1024.0 |
| 20260509185555 | 55 | 189 | 1.7 | 3.5 | 0.00 | 0.00 | 0.00 | 85 | 1024.0 |
| 20260509185053 | 55 | 189 | 0.9 | 3.5 | 0.00 | 0.00 | 0.00 | 85 | 1023.9 |
| 20260509184551 | 55 | 222 | 0.9 | 1.7 | 0.00 | 0.00 | 0.00 | 85 | 1023.9 |
| 20260509184039 | 55 | 223 | 0.9 | 1.7 | 0.00 | 0.00 | 0.00 | 85 | 1024.0 |
| 20260509183553 | 55 | 222 | 0.9 | 1.7 | 0.00 | 0.00 | 0.00 | 85 | 1024.0 |
| 20260509183255 | 55 | 223 | 0.9 | 3.5 | 0.00 | 0.00 | 0.00 | 85 | 1023.9 |
| 20260509182454 | 55 | 222 | 0.9 | 3.5 | 0.00 | 0.00 | 0.00 | 85 | 1023.8 |
| 20260509182006 | 55 | 223 | 0.0 | 3.5 | 0.00 | 0.00 | 0.00 | 85 | 1023.8 |
| 20260509181459 | 55 | 219 | 0.0 | 1.7 | 0.00 | 0.00 | 0.00 | 85 | 1023.8 |
| 20260509180947 | 55 | 219 | 0.9 | 2.6 | 0.00 | 0.00 | 0.00 | 85 | 1023.8 |
| 20260509180442 | 55 | 219 | 0.9 | 2.6 | 0.00 | 0.00 | 0.00 | 86 | 1023.8 |
| 20260509175945 | 55 | 219 | 0.9 | 3.5 | 0.00 | 0.00 | 0.00 | 86 | 1023.7 |
| 20260509175437 | 55 | 222 | 1.7 | 3.5 | 0.00 | 0.00 | 0.00 | 86 | 1023.7 |
| 20260509174946 | 55 | 241 | 1.7 | 2.6 | 0.00 | 0.00 | 0.00 | 86 | 1023.6 |
| 20260509174439 | 55 | 206 | 1.7 | 3.5 | 0.00 | 0.00 | 0.00 | 87 | 1023.5 |
| 20260509173940 | 55 | 206 | 1.7 | 3.5 | 0.00 | 0.00 | 0.00 | 87 | 1023.6 |
| 20260509173440 | 55 | 222 | 0.9 | 3.5 | 0.00 | 0.00 | 0.00 | 87 | 1023.5 |
| 20260509172940 | 55 | 207 | 0.9 | 3.5 | 0.00 | 0.00 | 0.00 | 87 | 1023.4 |
| 20260509172429 | 55 | 185 | 0.9 | 2.6 | 0.00 | 0.00 | 0.00 | 87 | 1023.4 |
| 20260509171939 | 55 | 185 | 0.0 | 1.7 | 0.00 | 0.00 | 0.00 | 88 | 1023.5 |
| 20260509171853 | 55 | 185 | 0.9 | 2.6 | 0.00 | 0.00 | 0.00 | 88 | 1023.5 |
| 20260509171525 | 55 | 185 | 0.0 | 1.7 | 0.00 | 0.00 | 0.00 | 88 | 1023.6 |
| 20260509170411 | 55 | 185 | 0.0 | 2.6 | 0.00 | 0.00 | 0.00 | 88 | 1023.6 |
| 20260509165904 | 54 | 185 | 0.0 | 1.7 | 0.00 | 0.00 | 0.00 | 88 | 1023.7 |
| 20260509165412 | 54 | 185 | 0.0 | 1.7 | 0.00 | 0.00 | 0.00 | 88 | 1023.7 |
| 20260509164915 | 54 | 185 | 0.0 | 1.7 | 0.00 | 0.00 | 0.00 | 89 | 1023.7 |
| 20260509164411 | 54 | 185 | 0.0 | 0.9 | 0.00 | 0.00 | 0.00 | 89 | 1023.7 |
| 20260509163914 | 54 | 185 | 0.0 | 1.7 | 0.00 | 0.00 | 0.00 | 89 | 1023.7 |
| 20260509163402 | 54 | 185 | 0.0 | 1.7 | 0.00 | 0.00 | 0.00 | 89 | 1023.6 |
| 20260509162910 | 54 | 185 | 0.0 | 3.5 | 0.00 | 0.00 | 0.00 | 89 | 1023.7 |
| 20260509162354 | 54 | 185 | 0.0 | 3.5 | 0.00 | 0.00 | 0.00 | 90 | 1023.6 |
| 20260509161847 | 54 | 185 | 0.9 | 3.5 | 0.00 | 0.00 | 0.00 | 90 | 1023.6 |
| 20260509161326 | 54 | 185 | 0.9 | 3.5 | 0.00 | 0.00 | 0.00 | 90 | 1023.5 |
| 20260509160830 | 53 | 132 | 0.0 | 2.6 | 0.00 | 0.00 | 0.00 | 90 | 1023.5 |
| 20260509160312 | 53 | 130 | 0.0 | 1.7 | 0.00 | 0.00 | 0.00 | 90 | 1023.5 |
| 20260509155816 | 53 | 130 | 0.0 | 1.7 | 0.00 | 0.00 | 0.00 | 90 | 1023.6 |
| 20260509155539 | 53 | 130 | 0.0 | 1.7 | 0.00 | 0.00 | 0.00 | 90 | 1023.7 |
| 20260509154807 | 53 | 130 | 0.0 | 1.7 | 0.00 | 0.00 | 0.00 | 90 | 1023.7 |
| 20260509154308 | 53 | 130 | 0.9 | 1.7 | 0.00 | 0.00 | 0.00 | 90 | 1023.6 |
| 20260509154027 | 53 | 130 | 0.0 | 1.7 | 0.00 | 0.00 | 0.00 | 90 | 1023.6 |
| 20260509153307 | 53 | 130 | 0.0 | 1.7 | 0.00 | 0.00 | 0.00 | 90 | 1023.7 |
| 20260509153255 | 53 | 130 | 0.0 | 1.7 | 0.00 | 0.00 | 0.00 | 90 | 1023.8 |
| 20260509152259 | 53 | 130 | 0.0 | 1.7 | 0.00 | 0.00 | 0.00 | 90 | 1023.8 |
| 20260509151757 | 52 | 130 | 0.0 | 1.7 | 0.00 | 0.00 | 0.00 | 89 | 1023.7 |
| 20260509151301 | 53 | 130 | 0.0 | 1.7 | 0.00 | 0.00 | 0.00 | 89 | 1023.8 |
| 20260509150802 | 53 | 119 | 0.0 | 0.9 | 0.00 | 0.00 | 0.00 | 89 | 1023.8 |
| 20260509150258 | 53 | 119 | 0.0 | 1.7 | 0.00 | 0.00 | 0.00 | 89 | 1024.0 |
| 20260509145756 | 53 | 119 | 0.0 | 1.7 | 0.00 | 0.00 | 0.00 | 89 | 1023.9 |
| 20260509145251 | 53 | 119 | 0.0 | 0.9 | 0.00 | 0.00 | 0.00 | 89 | 1024.0 |
| 20260509145009 | 53 | 119 | 0.0 | 0.9 | 0.00 | 0.00 | 0.00 | 89 | 1024.0 |
| 20260509144511 | 53 | 119 | 0.0 | 0.9 | 0.00 | 0.00 | 0.00 | 89 | 1024.0 |
| 20260509143957 | 53 | 119 | 0.0 | 0.9 | 0.00 | 0.00 | 0.00 | 89 | 1024.0 |
| 20260509143208 | 53 | 119 | 0.0 | 0.9 | 0.00 | 0.00 | 0.00 | 88 | 1023.9 |
| 20260509142706 | 53 | 119 | 0.0 | 0.9 | 0.00 | 0.00 | 0.00 | 88 | 1024.0 |
| 20260509142206 | 53 | 119 | 0.0 | 0.9 | 0.00 | 0.00 | 0.00 | 88 | 1024.0 |
| 20260509141713 | 53 | 119 | 0.0 | 0.9 | 0.00 | 0.00 | 0.00 | 88 | 1024.1 |
| 20260509141418 | 53 | 119 | 0.0 | 0.9 | 0.00 | 0.00 | 0.00 | 88 | 1024.1 |
| 20260509140706 | 53 | 119 | 0.0 | 0.9 | 0.00 | 0.00 | 0.00 | 88 | 1024.1 |
| 20260509140204 | 53 | 119 | 0.0 | 0.9 | 0.00 | 0.00 | 0.00 | 88 | 1024.0 |
| 20260509135704 | 53 | 119 | 0.0 | 0.9 | 0.00 | 0.00 | 0.00 | 88 | 1024.1 |
| 20260509135158 | 53 | 119 | 0.0 | 0.9 | 0.00 | 0.00 | 0.00 | 88 | 1024.1 |
| 20260509134639 | 54 | 119 | 0.0 | 0.9 | 0.00 | 0.00 | 0.00 | 88 | 1024.1 |
| 20260509134145 | 54 | 119 | 0.0 | 1.7 | 0.00 | 0.00 | 0.00 | 87 | 1024.1 |
| 20260509133612 | 54 | 119 | 0.0 | 1.7 | 0.00 | 0.00 | 0.00 | 87 | 1024.1 |
| 20260509133358 | 54 | 119 | 0.0 | 0.9 | 0.00 | 0.00 | 0.00 | 87 | 1024.1 |
| 20260509132600 | 54 | 119 | 0.0 | 0.9 | 0.00 | 0.00 | 0.00 | 87 | 1024.1 |
| 20260509132058 | 54 | 119 | 0.0 | 0.0 | 0.00 | 0.00 | 0.00 | 87 | 1024.1 |
| 20260509131559 | 54 | 119 | 0.0 | 1.7 | 0.00 | 0.00 | 0.00 | 87 | 1024.1 |
| 20260509131104 | 54 | 119 | 0.0 | 1.7 | 0.00 | 0.00 | 0.00 | 87 | 1024.1 |
| 20260509130554 | 54 | 119 | 0.0 | 1.7 | 0.00 | 0.00 | 0.00 | 87 | 1024.0 |
| 20260509130321 | 55 | 119 | 0.0 | 1.7 | 0.00 | 0.00 | 0.00 | 87 | 1024.1 |
| 20260509125546 | 55 | 119 | 0.0 | 0.9 | 0.00 | 0.00 | 0.00 | 86 | 1024.1 |
| 20260509125048 | 55 | 119 | 0.0 | 0.9 | 0.00 | 0.00 | 0.00 | 86 | 1024.1 |
| 20260509124544 | 55 | 119 | 0.0 | 0.9 | 0.00 | 0.00 | 0.00 | 86 | 1024.0 |
| 20260509124036 | 55 | 119 | 0.0 | 0.9 | 0.00 | 0.00 | 0.00 | 86 | 1024.1 |
| 20260509123533 | 55 | 119 | 0.0 | 0.9 | 0.00 | 0.00 | 0.00 | 86 | 1024.0 |
| 20260509123029 | 55 | 119 | 0.0 | 0.9 | 0.00 | 0.00 | 0.00 | 86 | 1024.1 |
| 20260509122530 | 56 | 119 | 0.0 | 0.9 | 0.00 | 0.00 | 0.00 | 85 | 1024.1 |
| 20260509122254 | 56 | 119 | 0.0 | 0.9 | 0.00 | 0.00 | 0.00 | 85 | 1024.1 |
| 20260509121757 | 56 | 119 | 0.0 | 0.0 | 0.00 | 0.00 | 0.00 | 85 | 1024.1 |
| 20260509121258 | 56 | 119 | 0.0 | 0.0 | 0.00 | 0.00 | 0.00 | 85 | 1024.1 |
| 20260509120745 | 56 | 119 | 0.0 | 0.0 | 0.00 | 0.00 | 0.00 | 85 | 1024.1 |
| 20260509120040 | 56 | 119 | 0.0 | 0.0 | 0.00 | 0.00 | 0.00 | 85 | 1024.1 |
| 20260509115519 | 56 | 119 | 0.0 | 0.0 | 0.00 | 0.00 | 0.00 | 85 | 1024.1 |
| 20260509115234 | 56 | 119 | 0.0 | 0.9 | 0.00 | 0.00 | 0.00 | 85 | 1024.1 |
| 20260509114511 | 56 | 119 | 0.0 | 0.9 | 0.00 | 0.00 | 0.00 | 85 | 1024.0 |
| 20260509114010 | 57 | 119 | 0.0 | 0.9 | 0.00 | 0.00 | 0.00 | 85 | 1024.1 |
| 20260509113505 | 57 | 119 | 0.0 | 0.9 | 0.00 | 0.00 | 0.00 | 85 | 1024.1 |
| 20260509112955 | 57 | 119 | 0.0 | 0.0 | 0.00 | 0.00 | 0.00 | 84 | 1024.1 |
| 20260509112457 | 57 | 119 | 0.0 | 0.9 | 0.00 | 0.00 | 0.00 | 84 | 1024.1 |
| 20260509112437 | 57 | 119 | 0.0 | 0.9 | 0.00 | 0.00 | 0.00 | 84 | 1024.2 |
| 20260509111450 | 57 | 119 | 0.0 | 0.0 | 0.00 | 0.00 | 0.00 | 84 | 1024.2 |
| 20260509110950 | 57 | 119 | 0.0 | 0.9 | 0.00 | 0.00 | 0.00 | 84 | 1024.2 |
| 20260509110457 | 57 | 119 | 0.0 | 0.9 | 0.00 | 0.00 | 0.00 | 84 | 1024.1 |
| 20260509110000 | 57 | 119 | 0.0 | 0.0 | 0.00 | 0.00 | 0.00 | 84 | 1024.0 |
| 20260509105501 | 58 | 119 | 0.0 | 0.0 | 0.00 | 0.00 | 0.00 | 84 | 1024.1 |
| 20260509105213 | 58 | 119 | 0.0 | 0.9 | 0.00 | 0.00 | 0.00 | 83 | 1024.0 |
| 20260509104450 | 58 | 119 | 0.0 | 0.9 | 0.00 | 0.00 | 0.00 | 83 | 1024.0 |
| 20260509103941 | 58 | 119 | 0.0 | 0.9 | 0.00 | 0.00 | 0.00 | 83 | 1024.0 |
| 20260509103443 | 58 | 119 | 0.0 | 0.9 | 0.00 | 0.00 | 0.00 | 82 | 1024.0 |
| 20260509102949 | 58 | 119 | 0.0 | 0.9 | 0.00 | 0.00 | 0.00 | 82 | 1024.0 |
| 20260509102437 | 58 | 119 | 0.0 | 0.0 | 0.00 | 0.00 | 0.00 | 81 | 1024.0 |
| 20260509101934 | 59 | 119 | 0.0 | 0.0 | 0.00 | 0.00 | 0.00 | 81 | 1024.0 |
| 20260509101421 | 59 | 119 | 0.0 | 0.9 | 0.00 | 0.00 | 0.00 | 81 | 1024.0 |
| 20260509101143 | 59 | 119 | 0.0 | 0.9 | 0.00 | 0.00 | 0.00 | 81 | 1023.9 |
| 20260509100425 | 59 | 119 | 0.0 | 0.9 | 0.00 | 0.00 | 0.00 | 80 | 1023.9 |
| 20260509095924 | 60 | 119 | 0.0 | 0.9 | 0.00 | 0.00 | 0.00 | 80 | 1023.9 |
| 20260509095430 | 60 | 119 | 0.0 | 0.9 | 0.00 | 0.00 | 0.00 | 80 | 1023.8 |
| 20260509094909 | 60 | 119 | 0.0 | 0.9 | 0.00 | 0.00 | 0.00 | 80 | 1023.8 |
| 20260509094408 | 60 | 119 | 0.0 | 0.9 | 0.00 | 0.00 | 0.00 | 79 | 1023.6 |
| 20260509093907 | 60 | 119 | 0.9 | 0.9 | 0.00 | 0.00 | 0.00 | 79 | 1023.6 |
| 20260509093410 | 61 | 119 | 0.9 | 0.9 | 0.00 | 0.00 | 0.00 | 78 | 1023.6 |
| 20260509092838 | 61 | 119 | 0.0 | 0.9 | 0.00 | 0.00 | 0.00 | 77 | 1023.5 |
| 20260509092358 | 62 | 119 | 0.0 | 0.9 | 0.00 | 0.00 | 0.00 | 76 | 1023.5 |
| 20260509091833 | 62 | 119 | 0.0 | 0.9 | 0.00 | 0.00 | 0.00 | 75 | 1023.5 |
| 20260509091545 | 62 | 119 | 0.0 | 0.9 | 0.00 | 0.00 | 0.00 | 75 | 1023.5 |
| 20260509091052 | 62 | 119 | 0.0 | 0.9 | 0.00 | 0.00 | 0.00 | 75 | 1023.4 |
| 20260509090322 | 62 | 119 | 0.9 | 0.9 | 0.00 | 0.00 | 0.00 | 74 | 1023.3 |
| 20260509090300 | 63 | 119 | 0.0 | 0.9 | 0.00 | 0.00 | 0.00 | 74 | 1023.3 |
| 20260509085318 | 63 | 119 | 0.0 | 0.9 | 0.00 | 0.00 | 0.00 | 73 | 1023.2 |
| 20260509084824 | 63 | 119 | 0.0 | 0.9 | 0.00 | 0.00 | 0.00 | 73 | 1023.2 |
| 20260509084311 | 64 | 119 | 0.0 | 0.9 | 0.00 | 0.00 | 0.00 | 72 | 1023.1 |
| 20260509083803 | 64 | 119 | 0.0 | 0.9 | 0.00 | 0.00 | 0.00 | 72 | 1023.1 |
| 20260509083311 | 64 | 119 | 0.0 | 0.9 | 0.00 | 0.00 | 0.00 | 71 | 1023.0 |
| 20260509082756 | 65 | 119 | 0.0 | 0.9 | 0.00 | 0.00 | 0.00 | 70 | 1023.0 |
| 20260509082257 | 65 | 119 | 0.0 | 0.9 | 0.00 | 0.00 | 0.00 | 69 | 1022.9 |
| 20260509081755 | 65 | 119 | 0.0 | 0.9 | 0.00 | 0.00 | 0.00 | 68 | 1022.9 |
| 20260509081318 | 66 | 119 | 0.0 | 0.9 | 0.00 | 0.00 | 0.00 | 68 | 1022.8 |
| 20260509080748 | 66 | 119 | 0.0 | 0.0 | 0.00 | 0.00 | 0.00 | 67 | 1022.7 |
| 20260509080302 | 67 | 119 | 0.0 | 0.0 | 0.00 | 0.00 | 0.00 | 67 | 1022.7 |
| 20260509075741 | 67 | 119 | 0.0 | 0.0 | 0.00 | 0.00 | 0.00 | 66 | 1022.7 |
| 20260509075214 | 67 | 119 | 0.0 | 0.0 | 0.00 | 0.00 | 0.00 | 64 | 1022.6 |
| 20260509074648 | 68 | 119 | 0.0 | 0.0 | 0.00 | 0.00 | 0.00 | 63 | 1022.5 |
| 20260509074148 | 68 | 119 | 0.0 | 0.0 | 0.00 | 0.00 | 0.00 | 63 | 1022.4 |
| 20260509073649 | 69 | 119 | 0.0 | 0.0 | 0.00 | 0.00 | 0.00 | 62 | 1022.4 |
| 20260509073418 | 69 | 119 | 0.0 | 0.0 | 0.00 | 0.00 | 0.00 | 62 | 1022.4 |
| 20260509072703 | 69 | 119 | 0.0 | 0.9 | 0.00 | 0.00 | 0.00 | 61 | 1022.3 |
| 20260509072121 | 69 | 119 | 0.0 | 0.9 | 0.00 | 0.00 | 0.00 | 60 | 1022.3 |
| 20260509071556 | 70 | 119 | 0.0 | 0.9 | 0.00 | 0.00 | 0.00 | 60 | 1022.2 |
| 20260509071103 | 70 | 119 | 0.0 | 0.9 | 0.00 | 0.00 | 0.00 | 60 | 1022.2 |
| 20260509070534 | 70 | 119 | 0.0 | 1.7 | 0.00 | 0.00 | 0.00 | 60 | 1022.2 |
| 20260509070323 | 71 | 119 | 0.0 | 1.7 | 0.00 | 0.00 | 0.00 | 59 | 1022.1 |
| 20260509065513 | 71 | 119 | 0.9 | 3.5 | 0.00 | 0.00 | 0.00 | 59 | 1022.0 |
| 20260509065444 | 71 | 119 | 0.9 | 3.5 | 0.00 | 0.00 | 0.00 | 58 | 1021.9 |
| 20260509064509 | 71 | 119 | 0.9 | 3.5 | 0.00 | 0.00 | 0.00 | 57 | 1021.8 |
| 20260509064215 | 72 | 119 | 1.7 | 4.3 | 0.00 | 0.00 | 0.00 | 55 | 1021.8 |
| 20260509063452 | 72 | 114 | 2.6 | 4.3 | 0.00 | 0.00 | 0.00 | 54 | 1021.8 |
| 20260509062948 | 73 | 114 | 2.6 | 4.3 | 0.00 | 0.00 | 0.00 | 52 | 1021.7 |
| 20260509062438 | 73 | 124 | 1.7 | 6.1 | 0.00 | 0.00 | 0.00 | 50 | 1021.6 |
| 20260509061936 | 73 | 126 | 1.7 | 6.1 | 0.00 | 0.00 | 0.00 | 50 | 1021.6 |
| 20260509061436 | 73 | 96 | 1.7 | 6.1 | 0.00 | 0.00 | 0.00 | 50 | 1021.6 |
| 20260509060936 | 74 | 108 | 2.6 | 7.8 | 0.00 | 0.00 | 0.00 | 50 | 1021.6 |
| 20260509060435 | 74 | 122 | 3.5 | 7.8 | 0.00 | 0.00 | 0.00 | 49 | 1021.5 |
| 20260509055946 | 74 | 126 | 3.5 | 7.8 | 0.00 | 0.00 | 0.00 | 48 | 1021.6 |
| 20260509055427 | 74 | 116 | 3.5 | 7.8 | 0.00 | 0.00 | 0.00 | 47 | 1021.4 |
| 20260509055132 | 75 | 120 | 3.5 | 7.8 | 0.00 | 0.00 | 0.00 | 47 | 1021.4 |
| 20260509054420 | 75 | 123 | 3.5 | 7.0 | 0.00 | 0.00 | 0.00 | 46 | 1021.4 |
| 20260509053851 | 75 | 150 | 3.5 | 7.0 | 0.00 | 0.00 | 0.00 | 45 | 1021.4 |
| 20260509053359 | 75 | 123 | 2.6 | 7.0 | 0.00 | 0.00 | 0.00 | 45 | 1021.4 |
| 20260509052830 | 75 | 117 | 1.7 | 7.0 | 0.00 | 0.00 | 0.00 | 47 | 1021.3 |
| 20260509052319 | 75 | 114 | 2.6 | 7.0 | 0.00 | 0.00 | 0.00 | 47 | 1021.3 |
| 20260509051818 | 75 | 120 | 2.6 | 7.0 | 0.00 | 0.00 | 0.00 | 46 | 1021.4 |
| 20260509051526 | 75 | 126 | 2.6 | 7.0 | 0.00 | 0.00 | 0.00 | 46 | 1021.3 |
| 20260509050800 | 76 | 118 | 3.5 | 7.8 | 0.00 | 0.00 | 0.00 | 46 | 1021.3 |
| 20260509050731 | 76 | 124 | 2.6 | 7.8 | 0.00 | 0.00 | 0.00 | 47 | 1021.2 |
| 20260509050354 | 76 | 106 | 2.6 | 7.8 | 0.00 | 0.00 | 0.00 | 46 | 1021.3 |